RYR4SV GCFV-LEMD

Flight info

Callsign RYR4SV
Flight time 2h 7m
Altitude 36000
Route VASTO UN858 AKUDA DCT PESAS N858 PARKA Z165 SOTUK
Aircraft B738/M-SDE2E3FGHIRWXY/LB1

Departure

Time 2026-05-05 05:10
Airport Fuerteventura Airport (GCFV)

Arrival

Time 2026-05-05 07:18
Airport Adolfo Suárez Madrid–Barajas Airport (LEMD)
Time Latitude Longitude Altitude Speed Heading
2026-05-05 04:40 28.45385 -13.86833 98 ft 0 kts 272°
2026-05-05 05:01 28.45385 -13.86830 98 ft 3 kts 272°
2026-05-05 05:01 28.45384 -13.86800 98 ft 4 kts 272°
2026-05-05 05:02 28.45383 -13.86774 98 ft 4 kts 266°
2026-05-05 05:02 28.45391 -13.86747 97 ft 4 kts 225°
2026-05-05 05:02 28.45413 -13.86735 97 ft 4 kts 187°
2026-05-05 05:02 28.45434 -13.86733 97 ft 0 kts 182°
2026-05-05 05:04 28.45431 -13.86733 98 ft 2 kts 181°
2026-05-05 05:04 28.45398 -13.86730 100 ft 8 kts 163°
2026-05-05 05:05 28.45371 -13.86656 97 ft 14 kts 91°
2026-05-05 05:05 28.45319 -13.86568 94 ft 17 kts 180°
2026-05-05 05:05 28.45181 -13.86573 94 ft 23 kts 182°
2026-05-05 05:05 28.45004 -13.86579 94 ft 28 kts 181°
2026-05-05 05:06 28.44810 -13.86585 86 ft 29 kts 181°
2026-05-05 05:06 28.44622 -13.86591 73 ft 25 kts 182°
2026-05-05 05:06 28.44471 -13.86596 59 ft 20 kts 182°
2026-05-05 05:06 28.44331 -13.86601 63 ft 20 kts 181°
2026-05-05 05:07 28.44194 -13.86605 59 ft 19 kts 182°
2026-05-05 05:07 28.44052 -13.86611 54 ft 21 kts 183°
2026-05-05 05:07 28.43897 -13.86615 44 ft 23 kts 181°
2026-05-05 05:07 28.43759 -13.86620 43 ft 16 kts 182°
2026-05-05 05:08 28.43644 -13.86623 40 ft 17 kts 182°
2026-05-05 05:08 28.43556 -13.86626 38 ft 9 kts 181°
2026-05-05 05:08 28.43510 -13.86585 35 ft 10 kts 90°
2026-05-05 05:08 28.43559 -13.86523 32 ft 12 kts 32°
2026-05-05 05:09 28.43631 -13.86477 31 ft 12 kts 26°
2026-05-05 05:09 28.43705 -13.86445 31 ft 11 kts 20°
2026-05-05 05:09 28.43781 -13.86425 31 ft 11 kts
2026-05-05 05:09 28.43867 -13.86423 32 ft 22 kts
2026-05-05 05:10 28.44261 -13.86410 45 ft 91 kts
2026-05-05 05:10 28.45103 -13.86382 82 ft 149 kts
2026-05-05 05:10 28.46201 -13.86344 613 ft 162 kts
2026-05-05 05:10 28.47357 -13.86306 1369 ft 170 kts
2026-05-05 05:11 28.48526 -13.85769 1687 ft 199 kts 46°
2026-05-05 05:11 28.49269 -13.84349 1991 ft 220 kts 63°
2026-05-05 05:11 28.50240 -13.82942 2347 ft 241 kts 36°
2026-05-05 05:11 28.51782 -13.82067 2973 ft 253 kts 25°
2026-05-05 05:12 28.53403 -13.81246 3822 ft 258 kts 24°
2026-05-05 05:12 28.55065 -13.80395 4605 ft 266 kts 23°
2026-05-05 05:12 28.56769 -13.79518 5420 ft 271 kts 22°
2026-05-05 05:12 28.57920 -13.78930 5932 ft 276 kts 22°
2026-05-05 05:13 28.59241 -13.78261 6474 ft 282 kts 22°
2026-05-05 05:13 28.61053 -13.77343 7200 ft 288 kts 22°
2026-05-05 05:13 28.62898 -13.76407 7975 ft 293 kts 21°
2026-05-05 05:13 28.64778 -13.75453 8715 ft 299 kts 21°
2026-05-05 05:14 28.66699 -13.74477 9453 ft 305 kts 21°
2026-05-05 05:14 28.68661 -13.73480 10170 ft 312 kts 21°
2026-05-05 05:14 28.70700 -13.72445 10509 ft 333 kts 20°
2026-05-05 05:14 28.72883 -13.71339 10879 ft 349 kts 20°
2026-05-05 05:15 28.75122 -13.70199 11528 ft 355 kts 20°
2026-05-05 05:15 28.77390 -13.69040 12257 ft 359 kts 20°
2026-05-05 05:15 28.79685 -13.67869 12957 ft 364 kts 19°
2026-05-05 05:15 28.82010 -13.66681 13657 ft 369 kts 19°
2026-05-05 05:16 28.84366 -13.65478 14293 ft 373 kts 19°
2026-05-05 05:16 28.86757 -13.64257 14919 ft 378 kts 19°
2026-05-05 05:16 28.89135 -13.63043 15545 ft 382 kts 19°
2026-05-05 05:16 28.91578 -13.61794 16170 ft 387 kts 19°
2026-05-05 05:17 28.94116 -13.60848 16750 ft 381 kts
2026-05-05 05:17 28.96717 -13.60887 17391 ft 368 kts 341°
2026-05-05 05:17 28.99153 -13.61687 18056 ft 364 kts 333°
2026-05-05 05:17 29.01554 -13.62641 18658 ft 366 kts 332°
2026-05-05 05:18 29.03960 -13.63627 19229 ft 369 kts 332°
2026-05-05 05:18 29.05598 -13.64297 19590 ft 372 kts 332°
2026-05-05 05:18 29.08016 -13.65276 20112 ft 376 kts 332°
2026-05-05 05:18 29.10499 -13.66269 20655 ft 379 kts 332°
2026-05-05 05:19 29.13000 -13.67259 21219 ft 382 kts 332°
2026-05-05 05:19 29.15528 -13.68254 21761 ft 385 kts 332°
2026-05-05 05:19 29.18078 -13.69255 22294 ft 389 kts 332°
2026-05-05 05:19 29.20644 -13.70263 22797 ft 392 kts 332°
2026-05-05 05:20 29.23239 -13.71282 23300 ft 396 kts 332°
2026-05-05 05:20 29.25860 -13.72312 23763 ft 400 kts 332°
2026-05-05 05:20 29.28501 -13.73350 24189 ft 403 kts 332°
2026-05-05 05:20 29.31156 -13.74394 24643 ft 404 kts 331°
2026-05-05 05:21 29.33827 -13.75432 25100 ft 408 kts 334°
2026-05-05 05:21 29.36706 -13.75903 25492 ft 433 kts 354°
2026-05-05 05:21 29.39739 -13.75527 25971 ft 440 kts 359°
2026-05-05 05:21 29.42779 -13.75019 26399 ft 443 kts
2026-05-05 05:22 29.45839 -13.74478 26783 ft 446 kts
2026-05-05 05:22 29.48914 -13.73937 27164 ft 449 kts
2026-05-05 05:22 29.52007 -13.73405 27556 ft 451 kts 360°
2026-05-05 05:22 29.55118 -13.72883 27936 ft 453 kts 360°
2026-05-05 05:23 29.58244 -13.72370 28320 ft 455 kts 359°
2026-05-05 05:23 29.61383 -13.71861 28697 ft 457 kts 359°
2026-05-05 05:23 29.64537 -13.71352 29061 ft 459 kts 359°
2026-05-05 05:23 29.67713 -13.70842 29419 ft 461 kts 359°
2026-05-05 05:24 29.70900 -13.70329 29764 ft 464 kts 359°
2026-05-05 05:24 29.74059 -13.69820 30083 ft 466 kts 359°
2026-05-05 05:24 29.77283 -13.69300 30346 ft 469 kts 359°
2026-05-05 05:24 29.80514 -13.68778 30632 ft 471 kts 359°
2026-05-05 05:25 29.83770 -13.68250 30919 ft 472 kts 359°
2026-05-05 05:25 29.87024 -13.67723 31202 ft 474 kts 359°
2026-05-05 05:25 29.90295 -13.67192 31471 ft 475 kts 359°
2026-05-05 05:25 29.93574 -13.66660 31735 ft 477 kts 359°
2026-05-05 05:26 29.96867 -13.66125 31987 ft 479 kts 359°
2026-05-05 05:26 30.00005 -13.65616 32226 ft 480 kts 359°
2026-05-05 05:26 30.03420 -13.65061 32495 ft 481 kts 358°
2026-05-05 05:26 30.06726 -13.64521 32841 ft 480 kts 358°
2026-05-05 05:27 30.10026 -13.63981 33246 ft 477 kts 358°
2026-05-05 05:27 30.13307 -13.63444 33640 ft 475 kts 358°
2026-05-05 05:27 30.19841 -13.62379 34253 ft 473 kts 358°
2026-05-05 05:28 30.23100 -13.61848 34494 ft 474 kts 358°
2026-05-05 05:28 30.26365 -13.61317 34698 ft 474 kts 358°
2026-05-05 05:28 30.29637 -13.60784 34919 ft 475 kts 358°
2026-05-05 05:28 30.32910 -13.60249 35156 ft 475 kts 358°
2026-05-05 05:29 30.36182 -13.59714 35371 ft 475 kts 358°
2026-05-05 05:29 30.39457 -13.59177 35582 ft 475 kts 358°
2026-05-05 05:29 30.42687 -13.58648 35793 ft 476 kts 358°
2026-05-05 05:29 30.45968 -13.58110 36012 ft 475 kts 358°
2026-05-05 05:30 30.52494 -13.56192 36071 ft 507 kts 22°
2026-05-05 05:30 30.58426 -13.51593 36061 ft 514 kts 29°
2026-05-05 05:31 30.64188 -13.46792 36051 ft 506 kts 29°
2026-05-05 05:31 30.69947 -13.42116 36065 ft 504 kts 28°
2026-05-05 05:32 30.75718 -13.37512 36064 ft 503 kts 28°
2026-05-05 05:32 30.81488 -13.32908 36067 ft 502 kts 28°
2026-05-05 05:33 30.87238 -13.28303 36069 ft 502 kts 28°
2026-05-05 05:33 30.92995 -13.23686 36068 ft 502 kts 28°
2026-05-05 05:34 30.98767 -13.19098 36074 ft 502 kts 28°
2026-05-05 05:34 31.04501 -13.14554 36072 ft 503 kts 28°
2026-05-05 05:35 31.10287 -13.09954 36075 ft 504 kts 28°
2026-05-05 05:35 31.16072 -13.05342 36071 ft 504 kts 28°
2026-05-05 05:36 31.21858 -13.00721 36069 ft 504 kts 29°
2026-05-05 05:36 31.27642 -12.96094 36066 ft 503 kts 29°
2026-05-05 05:37 31.33417 -12.91467 36065 ft 503 kts 29°
2026-05-05 05:37 31.39179 -12.86845 36063 ft 502 kts 29°
2026-05-05 05:38 31.44926 -12.82227 36068 ft 500 kts 29°
2026-05-05 05:38 31.50659 -12.77615 36071 ft 499 kts 29°
2026-05-05 05:39 31.56381 -12.73004 36067 ft 498 kts 30°
2026-05-05 05:39 31.62048 -12.68429 36066 ft 497 kts 30°
2026-05-05 05:40 31.67736 -12.63832 36065 ft 496 kts 30°
2026-05-05 05:40 31.73412 -12.59237 36069 ft 495 kts 30°
2026-05-05 05:41 31.79077 -12.54644 36067 ft 494 kts 30°
2026-05-05 05:41 31.84723 -12.50059 36071 ft 493 kts 30°
2026-05-05 05:42 31.90362 -12.45473 36074 ft 492 kts 30°
2026-05-05 05:42 31.95990 -12.40889 36071 ft 492 kts 30°
2026-05-05 05:43 32.01553 -12.36360 36072 ft 491 kts 30°
2026-05-05 05:43 32.07176 -12.31786 36072 ft 491 kts 30°
2026-05-05 05:44 32.12793 -12.27209 36073 ft 490 kts 30°
2026-05-05 05:44 32.18400 -12.22631 36071 ft 490 kts 30°
2026-05-05 05:45 32.24006 -12.18046 36067 ft 490 kts 30°
2026-05-05 05:45 32.29609 -12.13456 36069 ft 490 kts 30°
2026-05-05 05:46 32.35172 -12.08892 36084 ft 490 kts 30°
2026-05-05 05:46 32.40774 -12.04289 36077 ft 490 kts 30°
2026-05-05 05:47 32.46371 -11.99684 36081 ft 490 kts 30°
2026-05-05 05:47 32.51967 -11.95072 36078 ft 490 kts 30°
2026-05-05 05:48 32.57560 -11.90455 36076 ft 490 kts 30°
2026-05-05 05:48 32.63145 -11.85837 36081 ft 489 kts 30°
2026-05-05 05:49 32.68726 -11.81216 36081 ft 489 kts 30°
2026-05-05 05:49 32.74299 -11.76594 36079 ft 488 kts 31°
2026-05-05 05:50 32.79864 -11.71971 36082 ft 487 kts 31°
2026-05-05 05:50 32.85414 -11.67354 36082 ft 486 kts 31°
2026-05-05 05:51 32.90950 -11.62742 36083 ft 485 kts 31°
2026-05-05 05:51 32.96463 -11.58141 36083 ft 484 kts 31°
2026-05-05 05:52 33.01899 -11.53598 36085 ft 482 kts 31°
2026-05-05 05:52 33.07386 -11.49004 36084 ft 481 kts 31°
2026-05-05 05:53 33.12824 -11.44444 36089 ft 481 kts 31°
2026-05-05 05:53 33.18287 -11.39857 36090 ft 480 kts 31°
2026-05-05 05:54 33.23732 -11.35255 36091 ft 479 kts 32°
2026-05-05 05:54 33.29162 -11.30647 36089 ft 479 kts 32°
2026-05-05 05:55 33.34591 -11.26033 36094 ft 478 kts 32°
2026-05-05 05:55 33.40014 -11.21421 36091 ft 478 kts 32°
2026-05-05 05:56 33.45436 -11.16802 36092 ft 478 kts 32°
2026-05-05 05:56 33.50857 -11.12177 36090 ft 478 kts 32°
2026-05-05 05:57 33.56273 -11.07549 36096 ft 478 kts 32°
2026-05-05 05:57 33.61689 -11.02914 36094 ft 478 kts 32°
2026-05-05 05:58 33.67098 -10.98277 36092 ft 478 kts 32°
2026-05-05 05:58 33.72500 -10.93638 36094 ft 477 kts 32°
2026-05-05 05:59 33.77898 -10.88997 36098 ft 477 kts 32°
2026-05-05 05:59 33.83286 -10.84356 36094 ft 476 kts 32°
2026-05-05 06:00 33.88625 -10.79750 36093 ft 475 kts 32°
2026-05-05 06:00 33.93995 -10.75110 36095 ft 475 kts 32°
2026-05-05 06:01 33.99357 -10.70470 36098 ft 474 kts 32°
2026-05-05 06:01 34.04645 -10.65886 36097 ft 474 kts 32°
2026-05-05 06:02 34.10004 -10.61235 36103 ft 474 kts 32°
2026-05-05 06:02 34.15358 -10.56579 36098 ft 474 kts 32°
2026-05-05 06:03 34.20713 -10.51916 36103 ft 475 kts 32°
2026-05-05 06:03 34.26072 -10.47241 36096 ft 475 kts 32°
2026-05-05 06:04 34.31430 -10.42560 36103 ft 475 kts 32°
2026-05-05 06:04 34.36795 -10.37864 36106 ft 476 kts 32°
2026-05-05 06:05 34.42167 -10.33155 36100 ft 477 kts 32°
2026-05-05 06:05 34.47539 -10.28438 36104 ft 477 kts 32°
2026-05-05 06:06 34.52917 -10.23708 36100 ft 478 kts 32°
2026-05-05 06:06 34.58262 -10.19000 36101 ft 478 kts 32°
2026-05-05 06:07 34.63640 -10.14259 36107 ft 478 kts 32°
2026-05-05 06:07 34.69029 -10.09523 36102 ft 478 kts 32°
2026-05-05 06:08 34.74416 -10.04788 36106 ft 478 kts 32°
2026-05-05 06:08 34.78921 -10.00820 36104 ft 477 kts 32°
2026-05-05 06:09 34.84299 -9.96074 36101 ft 477 kts 32°
2026-05-05 06:09 34.89662 -9.91331 36106 ft 476 kts 32°
2026-05-05 06:10 34.95023 -9.86583 36104 ft 476 kts 32°
2026-05-05 06:10 35.00343 -9.81863 36103 ft 476 kts 32°
2026-05-05 06:11 35.05692 -9.77110 36107 ft 475 kts 32°
2026-05-05 06:11 35.11031 -9.72359 36105 ft 475 kts 32°
2026-05-05 06:12 35.16370 -9.67598 36105 ft 475 kts 32°
2026-05-05 06:12 35.21707 -9.62832 36106 ft 475 kts 32°
2026-05-05 06:13 35.27045 -9.58057 36103 ft 475 kts 32°
2026-05-05 06:13 35.32383 -9.53275 36106 ft 475 kts 32°
2026-05-05 06:14 35.37718 -9.48486 36106 ft 476 kts 32°
2026-05-05 06:14 35.43062 -9.43682 36105 ft 476 kts 32°
2026-05-05 06:15 35.48403 -9.38872 36106 ft 477 kts 32°
2026-05-05 06:15 35.53753 -9.34046 36105 ft 477 kts 32°
2026-05-05 06:16 35.59105 -9.29210 36105 ft 478 kts 32°
2026-05-05 06:16 35.64419 -9.24400 36103 ft 478 kts 32°
2026-05-05 06:17 35.69774 -9.19545 36106 ft 478 kts 32°
2026-05-05 06:17 35.75128 -9.14682 36103 ft 478 kts 32°
2026-05-05 06:18 35.80481 -9.09811 36105 ft 478 kts 32°
2026-05-05 06:18 35.85834 -9.04932 36104 ft 479 kts 32°
2026-05-05 06:19 35.91186 -9.00046 36106 ft 479 kts 32°
2026-05-05 06:19 35.96503 -8.95083 36102 ft 481 kts 37°
2026-05-05 06:20 36.01037 -8.89083 36111 ft 485 kts 46°
2026-05-05 06:20 36.05381 -8.82696 36105 ft 486 kts 47°
2026-05-05 06:21 36.09731 -8.76327 36094 ft 482 kts 46°
2026-05-05 06:21 36.14062 -8.70055 36093 ft 477 kts 46°
2026-05-05 06:22 36.18374 -8.63839 36103 ft 475 kts 46°
2026-05-05 06:22 36.22678 -8.57626 36102 ft 475 kts 46°
2026-05-05 06:23 36.26976 -8.51406 36101 ft 475 kts 46°
2026-05-05 06:23 36.31271 -8.45175 36103 ft 476 kts 46°
2026-05-05 06:24 36.35573 -8.38923 36103 ft 477 kts 46°
2026-05-05 06:24 36.39857 -8.32685 36106 ft 479 kts 46°
2026-05-05 06:25 36.44179 -8.26379 36098 ft 480 kts 46°
2026-05-05 06:25 36.48518 -8.20036 36100 ft 482 kts 46°
2026-05-05 06:26 36.52860 -8.13678 36104 ft 483 kts 46°
2026-05-05 06:26 36.57211 -8.07293 36096 ft 484 kts 46°
2026-05-05 06:27 36.63747 -7.97680 36091 ft 485 kts 46°
2026-05-05 06:28 36.68075 -7.91299 36092 ft 485 kts 46°
2026-05-05 06:28 36.72427 -7.84869 36093 ft 485 kts 46°
2026-05-05 06:29 36.76774 -7.78436 36085 ft 485 kts 46°
2026-05-05 06:29 36.81113 -7.72002 36088 ft 484 kts 46°
2026-05-05 06:30 36.85445 -7.65566 36086 ft 484 kts 46°
2026-05-05 06:30 36.89769 -7.59129 36083 ft 484 kts 46°
2026-05-05 06:31 36.94087 -7.52687 36089 ft 483 kts 46°
2026-05-05 06:31 36.98404 -7.46235 36090 ft 483 kts 46°
2026-05-05 06:32 37.02666 -7.39855 36086 ft 483 kts 46°
2026-05-05 06:32 37.06984 -7.33401 36088 ft 483 kts 46°
2026-05-05 06:33 37.11311 -7.26958 36088 ft 484 kts 46°
2026-05-05 06:33 37.15644 -7.20487 36087 ft 484 kts 46°
2026-05-05 06:34 37.19947 -7.14054 36084 ft 485 kts 46°
2026-05-05 06:34 37.24292 -7.07564 36088 ft 486 kts 46°
2026-05-05 06:35 37.28638 -7.01057 36087 ft 487 kts 46°
2026-05-05 06:35 37.32988 -6.94530 36076 ft 488 kts 46°
2026-05-05 06:36 37.37352 -6.87966 36077 ft 489 kts 46°
2026-05-05 06:36 37.41716 -6.81389 36079 ft 490 kts 46°
2026-05-05 06:37 37.46082 -6.74796 36074 ft 491 kts 46°
2026-05-05 06:37 37.50455 -6.68179 36080 ft 492 kts 46°
2026-05-05 06:38 37.54829 -6.61548 36071 ft 492 kts 46°
2026-05-05 06:38 37.59201 -6.54905 36070 ft 492 kts 46°
2026-05-05 06:39 37.63569 -6.48256 36075 ft 492 kts 46°
2026-05-05 06:39 37.67939 -6.41590 36074 ft 493 kts 46°
2026-05-05 06:40 37.72310 -6.34908 36071 ft 493 kts 46°
2026-05-05 06:40 37.76676 -6.28220 36071 ft 493 kts 46°
2026-05-05 06:41 37.81043 -6.21519 36076 ft 494 kts 46°
2026-05-05 06:41 37.85378 -6.14852 36064 ft 494 kts 46°
2026-05-05 06:42 37.89741 -6.08127 36076 ft 494 kts 46°
2026-05-05 06:42 37.94158 -6.01473 36063 ft 491 kts 40°
2026-05-05 06:43 37.99440 -5.96221 36085 ft 478 kts 25°
2026-05-05 06:43 38.05044 -5.91837 36079 ft 478 kts 24°
2026-05-05 06:44 38.10719 -5.87383 36089 ft 480 kts 25°
2026-05-05 06:44 38.16384 -5.82854 36074 ft 481 kts 25°
2026-05-05 06:45 38.22036 -5.78293 36087 ft 482 kts 25°
2026-05-05 06:45 38.27699 -5.73713 36088 ft 482 kts 25°
2026-05-05 06:46 38.33326 -5.69158 36086 ft 482 kts 25°
2026-05-05 06:46 38.38974 -5.64577 36072 ft 477 kts 25°
2026-05-05 06:47 38.44539 -5.60054 36079 ft 472 kts 25°
2026-05-05 06:47 38.50089 -5.55542 35676 ft 473 kts 25°
2026-05-05 06:47 38.52842 -5.53297 35349 ft 467 kts 25°
2026-05-05 06:48 38.55569 -5.51071 34968 ft 464 kts 24°
2026-05-05 06:48 38.58281 -5.48857 34602 ft 461 kts 24°
2026-05-05 06:48 38.60977 -5.46660 34208 ft 459 kts 23°
2026-05-05 06:48 38.63669 -5.44482 33752 ft 457 kts 23°
2026-05-05 06:49 38.66351 -5.42320 33357 ft 454 kts 23°
2026-05-05 06:49 38.69015 -5.40172 32963 ft 451 kts 23°
2026-05-05 06:49 38.71659 -5.38037 32585 ft 448 kts 23°
2026-05-05 06:49 38.74289 -5.35910 32216 ft 445 kts 23°
2026-05-05 06:50 38.76900 -5.33796 31850 ft 443 kts 23°
2026-05-05 06:50 38.79499 -5.31688 31497 ft 440 kts 23°
2026-05-05 06:50 38.82077 -5.29597 31135 ft 438 kts 23°
2026-05-05 06:50 38.84647 -5.27509 30776 ft 436 kts 24°
2026-05-05 06:51 38.87196 -5.25437 30432 ft 433 kts 24°
2026-05-05 06:51 38.89736 -5.23370 30069 ft 431 kts 24°
2026-05-05 06:51 38.92261 -5.21314 29653 ft 429 kts 24°
2026-05-05 06:51 38.94772 -5.19267 29258 ft 425 kts 24°
2026-05-05 06:52 38.97254 -5.17229 28908 ft 423 kts 26°
2026-05-05 06:52 38.99553 -5.14831 28526 ft 429 kts 38°
2026-05-05 06:52 39.01509 -5.12021 28198 ft 433 kts 49°
2026-05-05 06:52 39.03172 -5.08778 27837 ft 434 kts 54°
2026-05-05 06:53 39.04737 -5.05464 27471 ft 433 kts 55°
2026-05-05 06:53 39.06258 -5.02187 27125 ft 431 kts 55°
2026-05-05 06:53 39.07800 -4.98887 26760 ft 429 kts 55°
2026-05-05 06:53 39.09348 -4.95611 26407 ft 429 kts 54°
2026-05-05 06:54 39.10909 -4.92340 26067 ft 428 kts 54°
2026-05-05 06:54 39.12465 -4.89092 25698 ft 426 kts 54°
2026-05-05 06:54 39.14016 -4.85857 25352 ft 423 kts 54°
2026-05-05 06:54 39.15560 -4.82636 25009 ft 421 kts 54°
2026-05-05 06:55 39.17097 -4.79425 24659 ft 420 kts 55°
2026-05-05 06:55 39.18624 -4.76230 24311 ft 418 kts 55°
2026-05-05 06:55 39.20296 -4.73188 23944 ft 412 kts 43°
2026-05-05 06:55 39.22265 -4.70543 23632 ft 407 kts 39°
2026-05-05 06:56 39.24298 -4.67994 23214 ft 406 kts 38°
2026-05-05 06:56 39.26326 -4.65481 22830 ft 403 kts 38°
2026-05-05 06:56 39.28333 -4.62969 22470 ft 401 kts 39°
2026-05-05 06:56 39.30319 -4.60448 22113 ft 399 kts 39°
2026-05-05 06:57 39.31619 -4.58782 21885 ft 397 kts 39°
2026-05-05 06:57 39.33567 -4.56270 21537 ft 395 kts 39°
2026-05-05 06:57 39.35502 -4.53761 21195 ft 393 kts 39°
2026-05-05 06:57 39.37423 -4.51264 20851 ft 391 kts 39°
2026-05-05 06:58 39.39334 -4.48777 20503 ft 389 kts 39°
2026-05-05 06:58 39.41234 -4.46304 20162 ft 387 kts 40°
2026-05-05 06:58 39.43122 -4.43843 19819 ft 385 kts 40°
2026-05-05 06:58 39.45009 -4.41382 19483 ft 383 kts 40°
2026-05-05 06:59 39.46878 -4.38944 19147 ft 381 kts 40°
2026-05-05 06:59 39.48739 -4.36514 18807 ft 380 kts 40°
2026-05-05 06:59 39.50595 -4.34088 18468 ft 378 kts 40°
2026-05-05 06:59 39.52449 -4.31664 18084 ft 378 kts 40°
2026-05-05 07:00 39.54294 -4.29249 17694 ft 376 kts 40°
2026-05-05 07:00 39.56124 -4.26852 17353 ft 373 kts 40°
2026-05-05 07:00 39.57944 -4.24464 17005 ft 370 kts 41°
2026-05-05 07:00 39.59724 -4.22128 16670 ft 368 kts 41°
2026-05-05 07:01 39.61516 -4.19775 16340 ft 365 kts 41°
2026-05-05 07:01 39.63295 -4.17436 16003 ft 362 kts 41°
2026-05-05 07:01 39.65060 -4.15116 15672 ft 360 kts 41°
2026-05-05 07:01 39.66808 -4.12816 15348 ft 357 kts 41°
2026-05-05 07:02 39.68545 -4.10527 15020 ft 354 kts 41°
2026-05-05 07:02 39.70269 -4.08256 14707 ft 351 kts 41°
2026-05-05 07:02 39.71977 -4.06003 14397 ft 349 kts 42°
2026-05-05 07:02 39.73670 -4.03767 14088 ft 346 kts 42°
2026-05-05 07:03 39.75353 -4.01543 13767 ft 344 kts 42°
2026-05-05 07:03 39.77022 -3.99339 13432 ft 341 kts 42°
2026-05-05 07:03 39.78675 -3.97151 13109 ft 337 kts 43°
2026-05-05 07:03 39.80311 -3.94985 12788 ft 334 kts 43°
2026-05-05 07:04 39.81930 -3.92840 12486 ft 330 kts 43°
2026-05-05 07:04 39.83530 -3.90719 12195 ft 327 kts 43°
2026-05-05 07:04 39.85114 -3.88618 11908 ft 323 kts 43°
2026-05-05 07:04 39.86679 -3.86539 11623 ft 320 kts 43°
2026-05-05 07:05 39.88229 -3.84481 11340 ft 317 kts 43°
2026-05-05 07:05 39.89761 -3.82444 11058 ft 314 kts 43°
2026-05-05 07:05 39.91282 -3.80422 10782 ft 311 kts 44°
2026-05-05 07:05 39.92786 -3.78419 10505 ft 308 kts 44°
2026-05-05 07:06 39.94283 -3.76424 10225 ft 306 kts 44°
2026-05-05 07:06 39.95745 -3.74474 9964 ft 303 kts 44°
2026-05-05 07:06 39.97183 -3.72555 9828 ft 290 kts 44°
2026-05-05 07:06 39.98588 -3.70679 9428 ft 285 kts 44°
2026-05-05 07:07 39.99951 -3.68858 9146 ft 276 kts 44°
2026-05-05 07:07 40.01273 -3.67091 8881 ft 268 kts 44°
2026-05-05 07:07 40.02557 -3.65374 8629 ft 260 kts 44°
2026-05-05 07:07 40.03807 -3.63702 8398 ft 255 kts 44°
2026-05-05 07:08 40.05040 -3.62051 8182 ft 253 kts 44°
2026-05-05 07:08 40.06267 -3.60407 7965 ft 253 kts 44°
2026-05-05 07:08 40.07492 -3.58766 7744 ft 252 kts 45°
2026-05-05 07:08 40.08717 -3.57124 7519 ft 252 kts 45°
2026-05-05 07:09 40.09936 -3.55487 7293 ft 252 kts 45°
2026-05-05 07:09 40.11158 -3.53846 7067 ft 251 kts 45°
2026-05-05 07:09 40.12377 -3.52210 6845 ft 251 kts 45°
2026-05-05 07:09 40.13597 -3.50569 6620 ft 252 kts 45°
2026-05-05 07:10 40.14817 -3.48929 6396 ft 252 kts 45°
2026-05-05 07:10 40.16039 -3.47284 6151 ft 252 kts 45°
2026-05-05 07:10 40.17269 -3.45651 5880 ft 252 kts 43°
2026-05-05 07:10 40.18552 -3.44115 5545 ft 248 kts 41°
2026-05-05 07:11 40.19830 -3.42624 5226 ft 244 kts 41°
2026-05-05 07:11 40.21106 -3.41195 4910 ft 239 kts 33°
2026-05-05 07:11 40.22517 -3.40090 4576 ft 235 kts 27°
2026-05-05 07:11 40.23946 -3.39082 4241 ft 232 kts 27°
2026-05-05 07:12 40.25425 -3.38381 4009 ft 221 kts
2026-05-05 07:12 40.26941 -3.38445 4007 ft 215 kts 352°
2026-05-05 07:12 40.28384 -3.38705 4006 ft 209 kts 351°
2026-05-05 07:12 40.29798 -3.39064 3974 ft 206 kts 335°
2026-05-05 07:13 40.31043 -3.40032 4002 ft 208 kts 326°
2026-05-05 07:13 40.32239 -3.41082 4002 ft 211 kts 323°
2026-05-05 07:13 40.33421 -3.42237 4003 ft 212 kts 321°
2026-05-05 07:13 40.34575 -3.43411 3994 ft 205 kts 321°
2026-05-05 07:14 40.35659 -3.44519 3973 ft 190 kts 321°
2026-05-05 07:14 40.36664 -3.45546 3971 ft 180 kts 321°
2026-05-05 07:14 40.37641 -3.46545 3985 ft 178 kts 321°
2026-05-05 07:14 40.38623 -3.47547 3898 ft 181 kts 321°
2026-05-05 07:15 40.39569 -3.48512 3691 ft 172 kts 321°
2026-05-05 07:15 40.39720 -3.48667 3655 ft 170 kts 321°
2026-05-05 07:15 40.40635 -3.49601 3465 ft 167 kts 321°
2026-05-05 07:16 40.41539 -3.50522 3193 ft 159 kts 321°
2026-05-05 07:16 40.42374 -3.51375 2968 ft 148 kts 321°
2026-05-05 07:16 40.43175 -3.52193 2772 ft 147 kts 321°
2026-05-05 07:16 40.43990 -3.53025 2564 ft 150 kts 322°
2026-05-05 07:17 40.44814 -3.53865 2362 ft 151 kts 322°
2026-05-05 07:17 40.45641 -3.54708 2119 ft 150 kts 322°
2026-05-05 07:17 40.46447 -3.55529 1980 ft 144 kts 322°
2026-05-05 07:17 40.47184 -3.56262 1977 ft 114 kts 315°
2026-05-05 07:18 40.47685 -3.56781 1992 ft 63 kts 322°
2026-05-05 07:18 40.47966 -3.57071 2003 ft 30 kts 321°
2026-05-05 07:18 40.47995 -3.57206 2001 ft 17 kts 237°
2026-05-05 07:18 40.47926 -3.57324 2004 ft 16 kts 229°
2026-05-05 07:19 40.47836 -3.57326 2006 ft 15 kts 142°
2026-05-05 07:19 40.47754 -3.57241 2010 ft 15 kts 141°
2026-05-05 07:19 40.47675 -3.57160 2008 ft 14 kts 142°
2026-05-05 07:19 40.47590 -3.57077 2003 ft 16 kts 144°
2026-05-05 07:20 40.47493 -3.56987 2000 ft 18 kts 145°
2026-05-05 07:20 40.47385 -3.56890 1995 ft 19 kts 142°
2026-05-05 07:20 40.47283 -3.56763 1988 ft 21 kts 143°
2026-05-05 07:20 40.47161 -3.56643 1984 ft 23 kts 141°
2026-05-05 07:21 40.47021 -3.56550 1982 ft 22 kts 169°
2026-05-05 07:21 40.46867 -3.56556 1978 ft 22 kts 183°
2026-05-05 07:21 40.46717 -3.56565 1979 ft 21 kts 184°
2026-05-05 07:21 40.46572 -3.56578 1982 ft 21 kts 182°
2026-05-05 07:22 40.46431 -3.56588 1981 ft 20 kts 182°
2026-05-05 07:22 40.46288 -3.56598 1971 ft 20 kts 181°
2026-05-05 07:22 40.46246 -3.56598 1967 ft 1 kts 180°
2026-05-05 07:22 40.46231 -3.56611 1970 ft 4 kts 224°
2026-05-05 07:23 40.46220 -3.56661 1967 ft 8 kts 265°
2026-05-05 07:23 40.46206 -3.56733 1968 ft 6 kts 216°
2026-05-05 07:23 40.46167 -3.56730 1967 ft 6 kts 143°
2026-05-05 07:23 40.46162 -3.56675 1967 ft 6 kts 90°
2026-05-05 07:24 40.46162 -3.56634 1966 ft 0 kts 90°